THORAD DELTA 1 DEB

Satellite information

Favourite Embed

Satellite Type and Status

DEBRISIN ORBIT

Key statistics

Satellite THORAD DELTA 1 DEB at a glance.

Uptime

18441

Days in orbit

Revolutions

≈ 12.2

Per day

Orbit

SSO

Sun Synchronous Orbit

Inclination

101.1

Latest

Satellite identification and parameters

Extended collection of information and parameters for THORAD DELTA 1 DEB.

Object identification

Identified? True

Debris? True

Object name: THORAD DELTA 1 DEB

International designator: 1974-089GM

Object number (NORAD): 42620

Object ID (CCSDS): 42620

Country: UNITED STATES OF AMERICA (US)

Current information (Y/N): Y

RCS size: SMALL

Orbital parameters

Period: 117.726 minutes

Inclination: 101.0812 deg

SMA: 7956.87 km

Apoapsis: 1696.131 km

Periapsis: 1461.34 km

RAAN: 125.2851 deg

Eccentricy: 0.014754

Argument of periapsis: 194.7905 deg

Mean anomaly: 164.8811 deg

Mean motion: 12.2317706 rev/day

Mean motion (dot): 0.00000033 rev/day2

B* drag term: 0.00063316 1/REarth

Two-line elements (TLE)

Creation date: May 2, 2025, 2:33 a.m.

Reference frame: TEME

Reference center: EARTH

Epoch: April 30, 2025, 10:46 p.m. UTC

TLE line 0: 0 THORAD DELTA 1 DEB

TLE line 1: 1 42620U 74089GM 25120.94863258 .00000033 00000-0 63316-3 0 9995

TLE line 2: 2 42620 101.0812 125.2851 0147540 194.7905 164.8811 12.23177060496398

Live tracking on map

Real-time ground track for satellite THORAD DELTA 1 DEB.

In-orbit conjunctions

A list of the most updated potential collisions computed for object THORAD DELTA 1 DEB.

Target Orbit TCA Probability of collision Miss distance Type
COSMOS 2011 LEO 2024-12-31 01:55:15 0.0001308918 268.0 (m) PAYLOAD

Associated space launch

Meteorological satellite using radiometric imaging

THORAD DELTA 1 DEB was lifted into orbit during the mission ‘Delta 2310 | NOAA 4’, on board a Delta 2310 space rocket.

The launch took place on Nov. 15, 1974, 5:11 p.m. from Space Launch Complex 2W.

For more information about the launch, click the button.

Launch to space Delta 2310 | NOAA 4
Delta 2310 | NOAA 4

Agency: N/A

Status: Launch Successful

Launch date: Nov. 15, 1974, 5:11 p.m. UTC

Rocket: Delta 2310

Launch pad: Space Launch Complex 2W

Location: Vandenberg SFB, CA, USA

...

Latest news about this satellite

There are no fresh news available about this satellite. Check back as we update our databases every day.


Newsletter sign-up

Weekly statistics, charts and insights to help you stay on top of the space industry.